This is the latest recevied weather packets stored in our database for station/object KC3ROS. If no packets are shown the sender has not sent any weather packets the latest 10 day(s).
| Time | Temp. | Humidity | Pressure | Rain* | Wind** | Luminosity | Snow |
|---|---|---|---|---|---|---|---|
| 1778078569 | 8.89° C | 99% | 1007.5 hPa | 0 mm | - | 133 W/m² | - |
| 1778078266 | 8.33° C | 99% | 1007.2 hPa | 0 mm | - | 211 W/m² | - |
| 1778077963 | 8.33° C | 99% | 1007.2 hPa | 0 mm | - | 235 W/m² | - |
| 1778077662 | 8.33° C | 99% | 1007.3 hPa | 0 mm | - | 147 W/m² | - |
| 1778077360 | 8.33° C | 99% | 1007.3 hPa | 0 mm | - | 99 W/m² | - |
| 1778077058 | 8.33° C | 99% | 1007.3 hPa | 0 mm | - | 91 W/m² | - |
| 1778076756 | 8.33° C | 99% | 1007 hPa | 0 mm | - | 89 W/m² | - |
| 1778076453 | 8.33° C | 99% | 1007 hPa | 0 mm | - | 77 W/m² | - |
| 1778076150 | 8.33° C | 99% | 1007.1 hPa | 0 mm | - | 97 W/m² | - |
| 1778075846 | 8.33° C | 99% | 1007 hPa | 0 mm | - | 120 W/m² | - |
| 1778075543 | 8.33° C | 99% | 1007 hPa | 0.51 mm | - | 105 W/m² | - |
| 1778075240 | 8.33° C | 99% | 1006.9 hPa | 0.51 mm | - | 86 W/m² | - |
| 1778074936 | 8.33° C | 99% | 1006.7 hPa | 0 mm | - | 112 W/m² | - |
| 1778074634 | 7.78° C | 99% | 1006.7 hPa | 0.51 mm | - | 138 W/m² | - |
| 1778074330 | 7.78° C | 99% | 1006.7 hPa | 0.51 mm | - | 84 W/m² | - |
| 1778074027 | 7.78° C | 99% | 1006.8 hPa | 0 mm | - | 51 W/m² | - |
| 1778073724 | 7.78° C | 99% | 1006.8 hPa | 0 mm | - | 30 W/m² | - |
| 1778073422 | 7.78° C | 99% | 1006.7 hPa | 0.51 mm | - | 42 W/m² | - |
| 1778073117 | 7.78° C | 99% | 1006.8 hPa | 0.51 mm | - | 41 W/m² | - |
| 1778072815 | 8.33° C | 99% | 1006.9 hPa | 0 mm | - | 24 W/m² | - |
| 1778072512 | 8.33° C | 99% | 1006.8 hPa | 0.51 mm | - | 19 W/m² | - |
| 1778072210 | 8.33° C | 99% | 1006.6 hPa | 0.51 mm | - | 21 W/m² | - |
| 1778071907 | 8.33° C | 99% | 1006.4 hPa | 0 mm | - | 18 W/m² | - |
| 1778071605 | 8.33° C | 99% | 1005.9 hPa | 0 mm | - | 13 W/m² | - |
| 1778071303 | 8.33° C | 99% | 1006.1 hPa | 0 mm | - | 12 W/m² | - |
* Rain latest hour (hover to see other rain measurements)
** Current wind speed in m/s (hover to see current wind gust speed)